CAPE
2047 2160 2113 2073 2076 1874 1893 1947 1974 2075 2139 2389 2615 2313 2097 2324 2448 2393 2346 2251 2177 2163 2270 1690 1356 1086 646 491 1068 1288 1182 1212 1373 1491 1731 1967 2310 3020 3250 3056 3032 3030 2938 3025 3005 2880 2785 2794 2864 2844 2811 2828 2904 3166 3066 3174 3371 3278 3228 3298 3284 3110 3174 3238 3172 3179 3268 3284 3222 3216 3237 3272 3408 3372 3458 3630 3634 3443 3492 3400 3210 3469 3098 2834 2997
1993 2021 2057 1982 2030 1970 1948 2008 2072 2088 2148 2162 2330 2656 2587 2386 2280 2217 2440 2707 2367 1900 1622 593 634 676 758 839 791 1006 992 1056 1123 1415 1431 1766 2150 2807 3414 3213 3122 3174 3129 3186 3168 3207 3196 3232 3123 2982 3105 3466 3524 3474 3637 3594 3308 3430 3576 3524 3661 3553 3557 3530 3540 3638 3624 3571 3629 3664 3648 3670 3682 3700 3870 4002 3889 3817 3828 3698 3477 3453 3243 3494 3622
1842 1873 1883 2330 2062 1843 1929 1992 1948 1868 2182 2229 2318 2642 2541 2275 2082 2151 2285 2296 1969 2033 1712 899 564 614 798 756 828 867 1088 1058 1186 1611 1264 1598 1922 2291 3291 3533 3234 3324 3187 3294 3258 3203 3367 3516 3533 3487 3461 3412 3444 3694 3701 3775 3832 3774 3868 4016 3919 3854 3769 3822 3877 3866 3846 3907 4067 4144 4178 4218 4201 4257 4252 3978 4026 4110 3958 3888 3764 3666 3582 3610 3563
2009 2428 2530 2765 2708 2736 2733 2558 2555 2474 2493 2387 2276 2186 2414 2379 2359 2211 2605 2997 2626 2031 1683 1082 568 562 597 680 745 1023 1111 1165 1153 1610 1140 1306 1500 1857 2375 3320 3508 3428 3368 3356 3386 3305 3346 3367 3538 3634 3664 3755 3844 3875 3946 3968 4037 4136 4092 4274 4146 4063 4085 4097 4397 4294 4332 4519 4638 4588 4544 4475 4388 4286 4152 4163 4207 4267 4296 4185 4125 3934 3554 3472 3318
2051 2189 2697 2210 2427 2448 2396 2353 2245 2316 2239 2467 2441 3155 3409 2878 2375 2571 2334 2796 1938 1606 1472 1199 764 540 672 690 648 712 1135 1218 1237 1694 1354 1477 1724 1650 2030 2683 3084 3703 3658 3476 3571 3610 3580 3662 3680 3735 3758 3878 4112 4211 4123 4138 4196 4431 4491 4406 4162 4196 4228 4198 4416 4441 4390 4443 4387 4286 4344 4298 4225 4202 4199 4225 4339 4309 4241 4055 3800 3322 2960 2867 2861
2095 2255 2094 2092 2043 2044 2020 1843 1916 2132 2332 3586 2664 2307 2854 3359 3352 2618 3345 2357 2093 2021 1698 967 750 516 546 666 636 654 877 1284 1433 1725 1332 1461 1612 1899 1810 2095 2522 2819 3295 3744 3849 3890 3885 4036 4085 4232 4320 4367 4366 4480 4694 4661 4587 4465 4499 4465 4355 4365 4414 4409 4388 4384 4418 4400 4323 4329 4288 4238 4246 4260 4262 4298 4153 4050 3951 3769 3099 2771 2364 2182 2122
2145 1943 1708 1595 1609 1680 1784 1860 2040 2718 2666 3261 3431 3317 3318 2664 3148 2199 2228 2156 2335 2348 2225 1598 767 679 582 813 798 719 755 1230 1651 1848 1288 1394 1578 1623 2054 2015 2022 2235 2724 3040 3979 4226 4249 4338 4513 4538 4488 4572 4720 4801 4702 4777 4762 4559 4550 4627 4580 4438 4396 4441 4325 4306 4332 4280 4266 4295 4205 4221 4171 4183 4245 4019 3920 3864 3698 3239 2737 2472 1907 1790 1709
2028 1682 1393 1432 1626 1761 1925 2048 2978 4316 3460 3810 4050 2877 3108 2981 3063 3204 2412 2160 2711 2152 2054 1062 574 568 451 647 787 743 683 788 1397 1610 1264 1230 1471 1557 1628 2148 2120 2002 2757 2452 2621 2871 4184 4589 4775 4979 5085 5107 5126 5064 4935 4778 4543 4456 4541 4596 4528 4570 4492 4427 4383 4464 4399 4458 4469 4382 4271 4270 4254 4182 4156 3943 3837 3746 3318 2871 2387 1831 1830 1866 1914
1924 1757 1299 1513 1684 1986 2484 2846 4146 3736 3104 3194 2953 3518 3701 3508 2864 4068 3326 2901 2807 2559 2587 2265 873 432 453 645 1128 1178 616 837 917 1082 1132 950 1452 1464 1509 1896 2277 2677 2320 2300 2476 2527 2740 4144 4780 5115 5445 5546 5503 5382 5288 4965 4524 4520 4388 4456 4524 4531 4735 4819 4854 4892 4775 4740 4631 4590 4477 4195 3954 4039 3902 3795 3726 3553 3216 2708 1978 1924 2035 2036 2016
2300 2454 1968 1826 1981 2204 2539 2984 3679 3476 3421 3444 3334 3791 3656 3122 2997 3119 4170 3482 3133 3074 2832 2665 2091 664 548 676 703 820 957 1099 1020 1792 880 1179 1355 1392 1536 1681 2117 2267 2215 2197 2116 2458 2480 2650 4042 5072 5175 4794 5123 5187 5310 5368 4969 4167 4158 4353 4453 4634 4968 5146 5155 5076 4784 4754 4821 4684 4454 4106 4098 3874 3718 3680 3451 3448 2876 2308 1927 2062 2121 2040 2024
2345 2857 2877 2930 2860 2357 2441 3490 4103 3391 3766 3156 3333 3953 4367 3486 3305 3975 3983 4054 3612 3433 3181 2896 2517 1272 498 486 440 738 841 1005 2114 965 834 1030 1270 1514 1738 1977 2122 2277 2452 2572 2310 2171 2439 2421 2378 2612 2984 4048 5030 5894 5329 4822 4982 4414 4504 4525 4464 4631 5105 5210 5157 5040 4815 4726 4854 4864 4446 4135 4057 4023 3876 3685 3529 3358 2925 2138 2049 2155 2230 2200 2129
3377 3632 3122 4734 3125 2516 2893 3820 3598 3520 3228 2743 3238 3551 3977 3451 3456 5151 4591 4354 3911 3376 2910 2435 1151 529 614 416 780 727 854 1062 1431 1107 1007 1080 1046 1334 1622 1830 1998 2409 2622 2837 2837 2587 2406 2483 2414 2390 2768 2802 3882 5204 5728 5262 4319 4218 4478 4550 4740 4759 5261 5280 5146 5054 4888 4738 4743 4640 4497 4336 4244 4164 4080 3927 3705 3444 2957 2390 2170 2242 2381 2382 2385
3504 3061 3501 5586 2828 2860 3487 3577 3996 3723 2981 2695 3223 3926 4530 4632 4346 4699 5331 4042 3572 3526 1839 1769 388 376 539 244 792 803 1370 2444 1022 864 922 1056 941 1163 1383 1661 1608 1976 2288 2388 2610 2734 2813 2700 2566 2368 2494 2717 2794 4615 5278 4360 4768 4580 4583 4694 4796 5110 5296 5309 5206 5159 5036 4945 4792 4750 4623 4494 4483 4378 4256 4042 3939 3650 3135 2666 2474 2321 2347 2428 2474
3902 3161 4232 3017 2871 3416 3484 3360 3786 3403 3124 3678 4444 5594 3802 3857 4041 4022 4258 4148 3605 3311 2538 1522 786 223 339 412 672 571 1516 1902 1024 836 1000 1049 1028 794 972 1293 1233 1326 1502 1871 2174 2202 2488 2784 2757 2555 2349 2747 2659 2618 3157 4140 4475 4621 4956 4957 4950 5212 5276 5458 5396 5136 5276 5296 5137 4847 4764 4669 4598 4490 4349 4087 3942 3604 3326 3077 2696 2603 2364 2362 2372
3490 3787 3758 3626 3276 3660 3852 3650 3778 4582 4009 3847 4906 3705 3648 3934 3882 4186 3465 3331 3741 3315 2392 1874 1829 1377 1063 254 406 514 696 624 667 720 754 734 756 656 883 1092 1206 1124 1208 1436 1595 1580 1720 1924 2580 2913 2725 2626 2750 2466 2761 3460 3326 3989 4506 4585 4838 5480 5435 5544 5605 5555 5370 5166 5314 5162 4998 4860 4689 4460 4434 4343 4042 3832 3588 3283 3143 2867 2765 2673 2507
3179 3616 3950 3504 3525 3385 3802 4092 3574 4387 3978 3826 3570 4131 4470 4164 3642 4322 3683 3132 3395 3379 3459 2561 1893 839 569 738 196 544 806 776 959 1208 1159 891 588 599 665 854 1078 1040 1087 1269 1252 1139 1176 1409 1984 2738 3079 3086 2859 2534 2560 2696 3279 4727 4880 4716 4504 4318 4933 5329 5591 5351 5321 5369 5274 5052 4927 4851 4838 4760 4606 4349 4161 4108 3817 3428 3198 3121 2938 2829 2847
3253 3722 3972 3657 4046 4028 3918 3848 4046 4728 4428 4058 3509 3270 3846 3905 4445 4210 3459 3248 3164 3309 2666 2611 2090 3034 711 1359 614 612 538 631 1479 736 1495 586 502 504 624 640 763 868 996 1069 901 924 1058 1251 1731 2371 3248 3266 3050 2632 2465 2797 3025 4027 4574 4807 5065 4790 4399 4337 4848 5071 5180 5445 5158 5007 4929 4773 4678 4581 4594 4538 4460 4267 4014 3762 3506 3192 3030 2659 2746
3257 3535 3988 3981 3582 3560 3776 3208 3782 3422 3250 2953 3007 3500 3752 3272 4326 3834 3008 3616 3878 2849 2606 2627 2716 3011 2226 1780 571 391 387 884 842 393 641 1264 823 209 385 582 721 628 681 667 726 649 955 983 1666 2270 2879 2967 2723 2392 2616 3083 3903 3539 3932 4110 4994 5007 4745 4188 3879 4655 4792 5287 4625 4727 4770 4753 4725 4662 4782 4734 4627 4472 4281 3861 3492 3220 2924 2819 2517
3059 3107 3886 3836 3312 3278 3662 3291 3692 3265 5233 3077 3468 2984 2701 2774 3725 3341 3602 4752 3959 2673 2753 2416 1855 1988 2272 2349 2984 1979 811 1108 1217 2366 382 546 745 757 620 513 527 746 757 565 542 662 770 1325 1781 1958 2253 2703 2694 2586 2610 2836 3611 3928 3822 4133 4126 4328 4416 4242 3942 4180 4790 4924 4505 4474 4562 4603 4582 4558 4533 4426 4426 4408 4221 4070 3762 3500 3278 3051 2701
2868 3112 3567 3792 3568 3496 3808 3503 3504 3450 5116 3694 3086 2589 3340 3260 4788 4285 3434 3530 4194 3384 3086 2684 2099 2109 2511 2085 2289 2478 1686 2539 1537 1032 1038 813 603 582 654 557 394 487 658 504 312 322 521 1026 1536 1546 1517 1822 2138 2228 2165 2081 2616 3028 3446 3900 4370 4672 4570 4295 4226 4212 4360 4813 4560 4246 4135 4141 4269 4295 4209 4241 4295 4274 4152 4020 3905 3707 3493 3268 2998
2810 3047 3344 3529 3984 3317 3080 3212 3389 4258 5481 3342 2955 2672 2822 3153 3708 3676 3133 3343 3778 3938 3305 2824 2366 2579 1933 1486 1355 1788 1586 1878 2256 1940 1154 753 596 857 336 324 224 476 613 711 653 648 594 718 1139 1443 1486 1476 1634 2006 1829 1643 1935 2455 2918 3238 3832 4400 4752 4513 4296 4629 4711 4625 5050 4518 4186 4058 4044 4069 4078 4101 4121 4215 4202 4072 4063 4098 3901 3714 3403
2731 2784 3112 3175 3335 3492 3157 3186 2894 3808 3642 2683 2732 2651 2767 3563 4076 3376 3806 2787 3026 3342 3488 2445 2371 2546 2097 2024 1564 1469 1250 1152 1043 1045 1336 1194 670 393 246 282 377 261 711 797 885 666 514 575 955 1607 1228 1245 1375 1904 2071 1932 1854 1912 2006 2582 3278 3638 3816 3812 3736 4001 4198 4177 4204 4184 4119 3998 3994 3983 3998 4071 4090 4087 4069 4032 4032 4097 4084 3840 3698
2772 2898 2879 3001 3090 3484 3063 3209 3036 4022 3862 2922 2517 2858 3174 3002 3583 4442 3830 3064 3067 3354 2915 2591 2659 2485 2118 1569 1591 1406 1174 1231 897 1040 1259 649 571 608 918 802 700 194 1165 1405 1606 1458 922 585 519 1102 1149 882 1134 1508 1744 1838 2215 2400 2570 2782 2888 3023 3060 3110 3334 3637 3577 3471 3776 3997 3994 3980 3970 3998 4031 4097 4107 4060 4069 3992 3957 3969 4044 3930 3760
2739 2802 2771 2668 2957 3352 3311 3057 3264 3507 2942 2945 2886 3022 3364 3540 3562 3281 3327 3611 3093 3578 3090 2598 2406 2400 2290 1865 1512 1447 1488 1217 1061 1297 1243 942 753 714 1050 808 833 1002 1510 1570 1935 1859 1687 1470 851 656 900 746 1382 1706 1674 2072 2173 2769 2983 2643 2373 2381 2464 2760 3271 3631 3589 3397 3270 3300 3310 3314 3355 3362 3621 3664 3694 3580 3480 3498 3558 3789 3897 3886 3692
2637 2606 2764 2549 2651 3045 2880 2826 2966 2962 2857 3200 3212 3991 3304 3341 3073 3175 3682 3006 3377 3684 3009 2415 2315 2620 2348 1874 1461 1451 1132 1205 1181 1125 1175 889 858 1096 984 1304 1040 1061 1553 1651 2095 1849 1944 2070 1930 1672 605 916 1157 1700 1868 2068 1974 1820 2122 2133 2171 2239 2268 2439 2886 3081 3093 2998 3075 3341 3391 3374 3373 3343 3298 3285 3270 3230 3217 3444 3414 3434 3435 3312 3277
2647 2489 2491 2666 2710 2694 2686 2766 2838 2624 2949 2779 3144 3374 3152 2809 3103 2922 2843 2829 3313 3449 3172 3190 2845 2760 2605 2385 1896 1340 1044 1231 1140 1007 1210 1208 1374 1220 1131 1166 1361 1434 1865 1660 2035 1721 2054 2114 1792 1500 1314 1488 1825 1907 1856 1914 1880 1872 2197 2381 2514 2522 2291 2170 2591 3055 3314 3170 3102 3186 3231 3352 3528 3584 3414 3233 3198 3214 3212 3238 3368 3527 3656 3606 3531
2528 2597 2472 2497 2557 2462 2548 3129 2930 2759 3250 2960 3643 3969 4261 4062 3961 3499 3239 3585 3386 3648 3434 3316 3028 2871 2930 2679 2187 1758 1050 1131 1301 1206 1126 1268 1403 1322 1234 1196 1132 1524 1697 1779 2013 1889 2197 2167 2066 2101 2245 2477 2456 2152 1454 1624 1960 2091 2466 2706 2436 2208 1951 2024 2388 2681 2840 2926 3154 3173 3266 3488 3540 3573 3444 3255 3010 3117 3478 3432 3298 3245 3265 3225 3260
2342 2322 2396 2410 2539 2527 2682 3136 2865 2868 3198 3082 3510 3727 4005 3867 3737 3712 2758 3872 4104 3738 3319 3215 2973 3172 3178 3068 2574 1802 1871 2326 2156 1776 1626 1198 2024 1835 1539 1342 1452 1601 1649 2017 1752 2008 2241 2216 2123 2137 2554 2687 2506 2020 1665 1346 1254 1419 2004 1819 1742 1786 1741 1744 1397 1006 970 1064 1266 1509 1828 2286 2560 2768 2951 3013 2887 2846 3092 3491 3615 3295 3156 3047 2992
2535 2217 2243 2418 2416 2464 2415 2832 3078 2996 3142 3231 3424 3424 3636 3946 3909 3718 3314 3635 3711 2963 3500 3431 3526 3399 3110 3074 2787 2341 2470 2671 2811 2737 2322 2441 1801 1582 1492 1710 1693 1508 1660 1582 1602 2022 1962 2249 2426 2610 2703 2681 2376 1865 1672 1326 1200 1546 1234 1261 1589 1771 1534 890 750 751 774 737 843 906 928 1103 1400 1828 2286 2576 2641 2646 2743 2809 2792 2742 2741 2647 2737
2815 2976 2497 2638 2387 3215 2322 2656 2936 2983 3076 2965 3070 3178 3262 3305 3491 3145 3105 3765 3354 3662 3695 3912 3501 3271 3334 2965 2763 2868 2823 2798 2797 2690 2751 2931 2711 2320 2030 2015 1787 1692 1727 1820 1866 1980 2268 2232 2506 2738 2697 2607 2205 1738 1569 1318 1164 1261 1248 1224 1314 1229 928 837 800 708 691 683 798 826 995 1048 992 1167 1392 1599 1735 1720 1649 1869 2164 2256 2286 2294 2400
2764 2921 2800 2781 2542 2807 2168 2426 2907 2704 2903 2870 2894 3006 3391 3054 3249 3408 3596 3995 3433 3112 3199 3825 3689 3542 3092 3058 3069 2769 2878 2912 2599 2496 2389 2231 2400 2348 2786 2964 2163 1997 1967 2012 1857 2168 2319 2383 2605 2742 2747 2587 2121 1599 1354 1145 1118 1252 1203 1202 1288 1367 998 832 554 658 658 679 744 703 859 1132 1373 1568 1788 1924 1814 1646 1570 1604 1896 1901 1897 1978 2123
2652 2709 2742 2740 2786 2890 2218 2537 2916 2643 2668 2763 2746 2752 3525 3212 3133 3469 3370 3648 3572 3403 3413 3398 3268 3170 3206 2996 2781 2582 2841 2738 2557 2317 1971 2067 2336 1936 2147 2433 2922 2545 2075 2022 1962 2094 2197 2420 2559 2722 2705 2412 1991 1391 1131 1075 1124 1250 1327 1420 1421 1403 1093 426 531 664 637 718 755 924 1128 1414 1737 1943 2071 1978 1984 2018 2035 2009 2034 2073 2138 2078 1864
2446 2514 2527 2459 2914 2991 2736 2875 2906 2800 2699 2777 2723 2598 3336 3471 3289 3418 3516 3414 3396 3404 3289 3161 3154 3224 3186 3217 3042 2944 3070 2894 2649 2525 2505 2444 2160 1824 1627 2443 2589 4103 2894 2776 2451 1949 1910 2537 3030 2833 2327 2137 1406 1056 967 1035 1212 1278 1372 1339 1301 1069 727 279 296 526 749 1216 1452 1552 1648 1926 2137 2228 2182 2186 2077 2062 2103 2130 2150 2175 2245 2294 2241
2143 2072 2427 2565 2819 2729 2924 2863 2962 2902 2757 2729 2848 2618 3020 3346 3272 3088 3153 3327 3430 3205 3181 3243 3382 3499 3558 3380 3144 2832 2793 2612 2444 2426 2414 2508 2474 2029 1520 2069 1783 1680 2970 2020 1769 1774 1973 2251 1913 1605 1419 1454 1046 901 1019 1205 1334 1404 1334 1134 882 732 724 637 925 1512 1800 1953 1989 2142 2252 2344 2447 2408 2228 2048 1980 2032 2154 2270 2301 2302 2430 2450 2439
2100 1812 2288 2566 2703 2704 2724 2817 2849 2866 2718 2577 2625 2728 2739 3086 3197 3124 2997 3154 3329 3332 3474 3562 3468 3348 3205 3010 2852 2684 2779 2777 2624 2456 2429 2515 2152 1856 1618 1578 1498 1432 1758 2238 2002 2329 2214 1755 1352 1176 643 909 1073 1160 1252 1362 1392 1264 977 841 1091 1134 1440 1731 2052 2274 2352 2416 2454 2487 2528 2684 2504 2150 1933 1826 1942 2228 2410 2520 2567 2546 2525 2501 2445
1971 1870 1908 2299 2574 2673 2646 2646 2669 2699 2708 2669 2512 2591 2760 2735 2798 2920 3019 2882 3202 3369 3384 3403 3296 3124 2863 2414 2250 2391 2446 2415 2352 2307 2098 1867 1709 1632 1542 1589 1710 1546 1729 2374 2475 2121 1954 1234 528 655 1088 1262 1373 1333 1314 1275 994 1006 1011 1506 1687 1870 2168 2360 2419 2497 2501 2590 2487 2432 2666 2632 2169 1768 1887 2026 2084 2294 2516 2626 2698 2724 2677 2568 2385
1865 1755 1625 1939 2351 2595 2577 2496 2491 2592 2632 2585 2510 2576 2692 2834 2805 2810 2825 2784 3115 3389 3506 3411 3833 3110 2822 2682 2568 2438 2402 2422 2122 1850 1952 1773 1594 1358 1070 908 1742 1734 1930 1896 1858 2267 1753 624 1132 1284 1303 1369 1376 1360 1226 1170 1221 1025 1361 2164 2096 2078 2199 2269 2321 2342 2419 2532 2373 2403 2531 2221 1834 1875 1922 1914 2190 2388 2585 2640 2443 2155 1820 1650 1533
1785 1926 1800 1802 1887 2269 2482 2451 2318 2245 2200 2286 2393 2465 2706 2903 2933 2958 2933 2908 2841 2911 2939 2859 2827 2784 2700 2535 2231 2096 1958 1514 1444 1270 1136 1199 1165 1126 1018 681 543 580 669 742 450 525 1305 1520 1452 1418 1253 1328 1384 1390 1417 1457 1105 1075 1836 2304 2043 1926 1993 2130 2246 2340 2403 2494 2389 2329 2142 1843 1905 1887 1853 2019 2316 2475 2504 2063 1919 1958 1877 1693 1594
1597 1662 1892 1995 1917 1876 2056 2151 2215 2278 2331 2502 2628 2577 2602 2659 2718 2759 2841 2904 2957 2964 2928 2848 2682 2485 2289 2060 1817 1651 1377 1141 1071 1027 993 871 913 1008 861 650 589 1008 883 873 1569 1549 1495 1510 1495 1200 1292 1522 1439 1535 1664 1413 1365 1272 2173 2340 1995 1890 1988 2152 2249 2169 2250 2363 2251 2067 1825 1861 1851 1761 1737 2156 2258 2406 2389 2008 1913 1843 1952 1781 1675
1382 1347 1597 1578 1645 1944 1953 1964 1979 2196 2212 2292 2287 2368 2435 2455 2404 2430 2477 2596 2700 2481 2327 2554 2629 2563 2379 2154 1972 1826 1704 1575 1378 1226 1120 1066 935 743 717 650 1462 1243 1235 1519 1663 1766 1478 1353 1346 1344 1505 1564 1720 1652 1511 1544 1266 1547 2363 2388 2116 1935 1959 2038 2106 1886 2001 2082 1944 1816 1858 1778 1640 1630 1692 2103 2168 2240 2223 2044 1931 1800 1899 1874 1890
1470 1407 1358 1595 1911 2064 1937 2012 2171 2432 2542 2398 2352 2381 2589 2610 2562 2648 2609 2579 2527 2213 1888 1685 1832 1836 1578 1445 1374 1195 961 2277 2948 2934 1849 1403 979 932 793 1250 1276 969 945 1606 1218 938 1070 1329 1276 1259 1412 1435 1336 1270 1312 1174 1115 1836 2397 2338 1984 1843 1862 1801 1780 1670 1999 1980 1743 1846 1819 1602 1702 1885 1873 2031 2014 2525 1829 1728 1578 1420 1679 1724 1670
1531 1456 1332 1206 1595 2052 2217 2132 1989 2031 2210 2782 3242 3599 3479 3060 2678 2614 2559 2490 2305 1887 1877 1972 2021 1834 1411 1167 974 2372 2977 3843 5173 4435 4778 4212 3012 1456 955 589 733 857 771 545 590 973 1397 1194 1050 1525 1496 1570 1601 1648 1734 1697 1522 2323 2094 1984 1727 1695 1705 1752 1744 1681 1644 1648 1747 1870 1796 1728 1694 1895 1788 1814 1729 1592 1492 1566 1519 1628 1731 1685 1566
1442 1443 1318 1209 1318 1565 2002 2242 2022 1736 1825 2230 2596 2656 2734 2855 3033 2829 2589 2506 2386 2109 1618 1691 1600 1183 1079 838 886 2316 2779 2697 2061 3208 4095 3681 3613 3205 2536 2046 1412 574 455 651 668 785 1371 1772 2260 2219 2245 1966 1765 1622 1716 1700 2116 2136 1790 1692 1615 1669 1756 1726 1680 1556 2080 1544 1767 1787 1811 1659 1514 1548 1564 1597 1586 1487 1446 1416 1580 1715 1662 1526 1435
1409 1396 1316 1264 1258 1284 1371 1726 2093 2211 2133 2007 2137 2207 2156 2187 2398 2523 2546 2469 2365 2219 1638 1498 942 845 930 1289 1818 2909 3119 3288 1841 1016 1556 3149 2914 3480 3458 2952 2272 2599 1734 699 738 1277 1986 2386 2382 2421 1855 1601 1596 1781 1935 1965 1974 1789 1676 1683 1741 1788 1750 1665 1587 1514 1473 1536 1711 1731 1637 1470 1366 1375 1336 1398 1390 1321 1320 1454 1685 1653 1588 1486 1801
1728 1266 1253 1162 1150 1246 1220 1072 1267 1705 1971 2008 1861 1704 1495 1193 1320 1670 1847 1948 1873 1565 1363 1090 915 1101 1541 1588 1684 977 850 2127 1107 1109 1413 1752 2499 2803 2970 2911 2745 2486 1980 1292 1062 1659 2494 2538 2434 1719 1638 1734 1812 1920 1915 1894 1844 1802 1821 1796 1670 1530 1507 1534 1510 1456 1459 1517 1600 1639 1404 1341 1219 1192 1164 1190 1140 1147 1301 1628 1663 1534 1468 1962 1960
1917 1604 1216 892 738 735 666 682 745 915 1146 1315 1411 1442 1394 1190 892 706 927 1101 1308 1188 1092 1048 1647 1741 1561 1487 1155 927 910 899 936 1071 1278 1862 2168 2216 2275 2347 2247 2408 2406 2679 2946 2806 2464 1894 1846 1814 1967 1874 1845 1796 1875 1864 1854 1751 1666 1548 1358 1264 1143 1301 1352 1363 1371 1457 1514 1378 1275 1242 1047 960 952 914 959 1084 1488 1676 1485 1353 1599 2056 1977
1868 1586 1128 802 650 562 498 523 564 600 616 603 548 539 537 517 508 822 1381 1498 1293 1311 1434 1994 2097 2196 1843 1446 1364 1263 1163 1097 1058 1016 1068 1480 1799 1766 1830 2014 2183 2140 2025 2039 2086 2065 1939 1910 1850 1781 1728 1710 1638 1558 1520 1758 1936 1767 1265 1086 1033 1046 1017 1023 992 1049 1196 1319 1396 1206 1232 1076 797 762 788 813 956 1063 1562 1634 1338 1198 1460 1559 1523
1983 1877 1540 1179 861 663 534 461 403 369 293 341 413 436 464 515 1053 1634 1702 1614 1656 1952 2214 2069 2073 2189 1962 1602 1327 1200 1101 1021 959 954 1020 1156 1445 1307 1399 1422 1659 1787 1943 1943 1872 1865 1804 1751 1604 1389 1334 1285 1224 1282 1555 1894 1848 1388 1274 1180 1035 990 866 776 772 768 840 858 1191 1133 1081 722 477 668 728 836 984 1056 1492 1422 1098 847 938 1237 1267
1992 1886 1880 1835 1573 1173 881 744 642 592 505 459 419 391 427 576 1110 1467 1828 1871 1714 1993 2244 2033 1825 1676 1566 1420 1297 1178 1086 1034 991 953 920 925 993 1046 1126 1074 1127 1242 1903 1733 1691 1589 1397 1236 1097 958 900 854 1150 1441 1984 1740 1338 1499 1055 761 705 756 814 724 733 733 792 706 876 1064 743 565 428 566 683 855 971 962 1148 1165 670 343 1 0 717
2290 2078 2005 1864 1806 1769 1653 1468 1235 1124 948 780 707 625 562 497 697 1096 1550 1903 1762 1866 1994 1896 1764 1618 1583 1333 1285 1223 1189 1171 1136 1093 1029 948 866 832 794 872 874 842 1279 1181 1163 1080 807 644 574 565 728 979 1298 1843 1683 1373 1307 1068 852 508 436 619 628 719 767 793 852 727 1004 920 308 299 269 396 634 797 938 872 984 762 315 37 0 174 32
1944 1877 1786 1793 1758 1658 1567 1555 1554 1545 1552 1458 1292 1152 1005 863 746 766 1067 1398 1562 1705 1745 1678 1685 1607 1461 1368 1295 1240 1199 1130 1062 973 868 751 655 602 599 568 548 777 679 598 424 337 354 432 476 538 489 812 1127 883 510 759 670 629 598 385 364 340 394 496 566 677 838 992 863 411 10 0 23 199 569 572 841 569 1029 252 69 0 0 5 0
Wind_Speed
16 15 15 16 16 15 14 13 12 13 11 13 13 13 13 14 16 18 17 15 13 15 14 15 13 11 10 9 8 8 9 9 9 10 11 11 12 14 16 17 17 18 19 19 18 18 18 20 20 19 19 19 19 19 18 18 18 18 18 18 18 18 18 18 18 18 18 18 18 18 19 21 22 23 24 24 23 21 21 20 20 20 17 13 14
15 15 15 17 17 15 13 13 13 13 12 14 15 14 16 14 16 18 18 16 13 13 10 12 8 9 8 8 8 8 8 8 9 10 10 11 12 14 17 18 18 19 18 18 18 18 18 19 19 19 19 19 19 18 18 18 18 18 18 17 17 17 17 17 17 19 19 20 20 20 21 22 24 25 24 23 21 19 19 19 17 16 15 15 14
14 15 15 16 16 14 14 14 15 16 14 16 16 16 17 17 16 16 15 14 14 13 9 8 10 9 8 6 8 6 6 7 8 9 9 10 12 13 15 18 19 18 18 17 17 18 18 19 19 19 19 18 18 17 18 18 18 17 17 16 15 15 16 16 18 19 20 21 21 21 22 24 24 24 23 22 20 18 16 14 14 14 13 13 13
14 14 14 14 14 14 15 14 15 16 16 18 19 18 18 18 18 17 16 13 13 13 10 8 9 11 9 7 6 7 6 6 8 8 8 9 11 12 13 14 17 18 17 17 17 17 18 19 19 18 17 17 17 17 18 18 17 16 15 14 14 14 15 16 18 19 20 20 20 20 21 21 22 22 22 21 19 16 13 13 14 14 14 15 16
14 14 14 14 14 16 17 17 17 18 18 19 21 19 18 17 16 14 14 11 10 10 11 11 9 10 10 9 5 8 6 5 8 7 7 8 11 13 12 12 11 14 16 16 16 17 18 18 18 16 16 15 16 17 18 17 16 15 14 13 13 13 14 16 17 18 18 19 19 19 20 21 22 23 22 21 17 16 16 16 16 16 16 16 16
15 16 16 16 17 18 20 20 20 20 20 19 19 19 20 17 14 11 12 11 12 12 8 8 8 8 11 9 7 6 5 6 7 7 7 7 9 11 11 11 9 9 9 14 16 16 18 18 17 16 15 15 15 16 16 16 15 14 14 14 14 14 15 16 17 18 18 19 19 20 21 23 24 23 22 19 18 17 17 18 18 16 16 16 16
20 20 21 20 21 23 23 24 23 21 19 18 17 17 16 15 11 9 10 10 10 9 6 9 6 7 11 9 7 5 5 6 6 6 6 6 7 9 9 9 8 8 8 8 11 16 17 17 16 15 14 14 15 15 16 16 16 15 15 15 16 16 17 18 19 19 19 20 20 21 23 24 24 22 20 19 19 20 20 19 18 17 16 16 17
24 23 22 23 23 24 25 23 21 18 16 16 16 16 15 13 10 7 10 12 11 11 8 6 7 9 11 6 5 4 5 6 7 6 6 4 7 9 8 7 8 7 7 7 8 9 15 15 15 14 14 14 15 16 17 17 16 16 16 17 18 19 19 20 21 20 21 21 21 22 23 23 23 22 22 21 21 22 22 20 19 18 17 17 18
25 24 22 22 22 22 22 20 17 13 13 14 14 15 13 12 11 7 6 12 12 12 10 7 7 9 9 6 7 4 4 7 8 6 4 5 6 8 8 7 7 8 7 7 8 9 11 15 14 15 15 16 16 17 17 17 17 17 18 18 20 20 21 21 21 21 22 22 22 23 23 23 23 23 23 22 23 24 24 23 21 19 18 18 19
24 22 21 20 19 20 19 15 12 12 11 12 12 12 11 9 9 7 6 9 11 12 14 11 10 9 9 6 8 5 6 7 6 4 4 6 6 8 9 8 7 8 9 8 10 10 9 10 13 14 15 16 16 17 18 18 18 18 19 20 21 21 21 22 22 22 23 24 24 23 24 24 24 24 23 24 25 26 26 25 22 20 19 19 19
22 20 19 18 17 17 16 12 10 10 10 11 11 11 11 9 8 10 9 9 10 12 13 13 12 9 7 8 6 8 9 6 5 4 6 8 8 9 8 9 8 8 9 10 10 10 10 10 10 12 13 16 17 17 18 18 19 19 20 21 22 22 22 22 23 24 24 25 25 25 25 25 25 25 25 26 27 27 28 26 23 20 19 19 19
18 18 17 17 15 15 13 10 9 9 9 9 9 10 10 10 11 11 12 12 12 12 11 9 9 7 6 8 9 8 9 8 6 5 6 8 10 9 10 11 10 9 10 11 11 12 11 11 12 13 14 15 17 18 18 19 20 20 21 22 23 23 22 23 23 24 25 25 25 25 25 26 26 26 27 28 28 29 29 27 25 22 20 20 20
17 16 16 15 12 11 9 9 8 8 8 8 8 9 10 10 11 10 11 12 13 13 12 6 5 6 8 8 10 8 9 9 9 9 9 10 10 12 12 11 11 10 11 11 11 12 12 12 13 14 15 15 14 17 19 20 20 21 22 22 23 23 23 23 23 24 25 26 26 26 26 26 27 27 28 28 29 30 29 28 26 24 21 21 22
16 14 14 10 10 8 7 7 7 7 8 8 9 8 9 10 10 11 10 11 13 14 13 9 9 6 5 8 9 12 10 9 10 11 12 11 12 14 15 14 12 12 10 10 10 11 12 12 13 14 15 15 16 16 16 17 18 20 21 22 23 23 23 23 24 25 26 26 26 26 26 27 28 28 28 29 29 30 30 29 28 26 24 23 23
15 14 11 9 9 7 7 7 6 7 7 9 9 10 10 10 10 9 13 12 13 14 11 7 6 8 7 6 9 8 11 11 11 12 15 12 13 15 15 13 12 11 11 10 9 9 11 12 13 13 14 15 16 16 16 16 18 19 20 20 20 22 23 23 24 25 26 27 26 26 26 27 28 28 28 28 29 30 30 29 29 28 26 26 25
14 14 11 9 8 8 7 6 7 6 6 7 9 10 11 12 10 9 9 13 12 14 11 7 3 2 7 7 7 5 8 10 11 13 11 13 16 15 13 11 10 9 7 10 10 10 10 10 11 12 13 14 14 15 15 15 17 19 20 20 21 21 21 23 24 25 26 27 26 26 27 28 29 29 29 29 29 29 29 29 29 29 29 28 27
12 12 10 9 8 7 6 6 5 6 6 8 8 10 12 12 10 9 9 10 14 13 16 12 6 5 3 4 5 5 8 11 8 12 11 10 11 12 10 8 7 7 8 10 8 8 8 9 10 10 12 13 13 13 14 14 15 15 16 19 21 21 20 21 23 25 26 25 25 25 26 28 29 30 29 29 29 28 28 29 29 29 30 30 29
11 10 9 8 8 7 6 5 6 8 7 8 10 10 11 11 11 10 10 10 10 11 15 14 9 7 6 6 4 5 7 9 6 9 12 10 9 4 6 6 5 7 9 8 8 7 6 7 8 9 11 13 13 13 14 15 15 15 16 17 20 21 21 22 24 25 25 24 23 24 25 27 28 29 29 29 29 29 29 29 30 30 30 31 31
9 9 8 8 8 7 6 6 7 9 9 9 11 12 13 13 11 10 10 10 9 9 11 14 14 10 10 9 6 5 6 7 7 7 8 11 8 7 6 5 5 6 8 4 2 4 6 7 7 8 10 12 13 14 14 14 15 16 18 19 20 20 20 22 24 25 24 23 23 24 25 26 27 28 28 28 28 29 30 30 31 31 30 32 33
8 8 8 8 7 7 7 8 8 9 10 10 12 12 13 14 13 11 10 9 9 8 11 12 8 12 11 10 9 7 5 4 4 5 6 6 9 9 6 4 2 1 4 3 2 4 6 7 8 10 10 11 12 12 14 14 14 15 15 19 20 20 19 21 23 24 23 22 23 24 25 25 26 26 26 27 28 30 31 31 31 32 32 32 33
7 7 8 8 7 7 7 7 7 8 9 10 12 12 13 14 14 13 12 13 10 10 10 11 10 11 12 11 10 8 8 5 5 4 5 5 5 4 6 7 4 3 5 5 1 3 6 8 11 11 11 12 11 11 12 13 14 14 14 17 18 18 18 20 22 22 22 22 22 23 24 25 25 25 25 26 28 30 31 31 31 32 33 33 34
6 7 7 8 8 7 8 8 8 9 8 9 10 11 12 14 14 12 12 13 12 11 10 10 10 9 8 9 9 9 9 7 5 5 5 4 3 4 3 4 5 6 4 3 1 1 3 7 7 8 10 10 8 10 12 13 14 13 14 18 17 17 18 19 21 20 20 22 22 22 24 24 24 24 25 26 28 29 30 31 31 32 32 32 33
4 6 7 7 8 8 8 9 8 10 9 9 10 11 12 13 13 13 14 14 13 14 12 11 10 10 10 9 9 6 6 5 5 3 2 4 4 5 3 1 2 5 6 6 6 6 3 2 5 7 7 6 6 9 11 12 12 13 16 16 16 16 17 18 19 18 19 20 20 22 23 23 23 24 25 26 28 29 29 30 31 32 32 32 33
3 4 7 8 8 8 9 8 8 9 10 9 11 10 11 11 11 11 14 13 13 13 11 12 11 11 10 9 9 7 5 4 4 1 2 1 0 2 3 4 3 2 2 6 4 7 6 5 3 3 3 4 8 10 10 11 11 13 11 14 15 15 15 17 16 15 17 17 19 21 22 22 22 22 23 25 26 27 27 28 29 31 32 32 32
5 5 7 8 7 8 9 8 8 9 9 9 11 10 10 10 10 11 11 13 13 12 12 12 11 11 12 9 6 7 6 3 2 1 2 5 5 4 1 3 2 1 0 4 2 1 3 4 2 4 10 13 10 7 7 7 8 10 13 11 13 12 14 15 16 15 15 16 18 19 20 21 21 21 22 24 25 25 25 27 29 31 32 33 32
5 6 7 7 7 8 8 8 8 7 7 8 9 8 8 8 9 9 10 11 11 12 11 11 10 9 8 11 9 8 7 4 1 3 3 5 6 6 4 3 5 4 3 3 3 4 2 1 2 4 6 5 6 6 6 9 9 10 11 9 9 11 13 15 16 14 13 14 17 18 18 20 20 19 20 21 23 24 24 24 27 29 31 31 32
5 6 6 5 7 7 7 7 7 6 5 5 7 7 7 8 8 8 9 9 10 10 10 9 10 10 10 9 9 7 6 6 4 2 2 7 7 7 8 5 5 7 6 7 5 8 8 5 5 5 6 5 4 4 4 5 6 8 8 7 7 12 14 14 13 11 9 11 14 15 16 18 19 19 19 20 22 22 22 23 24 27 28 30 31
4 4 5 4 6 7 6 6 6 5 5 4 5 5 5 5 6 7 9 7 8 8 8 9 9 9 8 7 7 8 7 7 6 4 5 6 6 9 10 10 9 6 6 7 6 7 8 6 5 7 5 4 3 5 4 4 5 6 5 5 7 9 12 11 10 9 9 9 10 12 14 15 17 18 18 19 21 22 21 22 23 25 27 28 30
3 4 4 4 5 6 5 5 5 5 4 4 3 4 3 3 3 4 5 6 4 4 5 7 7 7 6 6 5 5 5 7 7 7 6 6 7 8 10 8 11 9 7 6 6 7 6 7 6 5 4 3 3 4 4 6 6 6 5 5 6 8 10 11 11 9 8 8 7 8 10 11 13 14 16 17 19 21 21 21 22 23 26 27 29
3 4 3 4 4 4 3 4 3 3 3 3 3 3 2 3 2 2 3 2 3 3 3 3 4 4 4 5 5 4 5 6 6 5 8 8 9 7 7 9 11 8 9 6 5 8 7 5 6 5 3 2 3 3 4 4 5 4 4 5 8 9 12 12 11 10 8 8 7 8 8 8 9 10 12 14 16 18 19 20 22 22 26 28 30
2 4 3 3 3 3 3 3 2 2 2 2 2 2 1 1 1 1 1 1 1 2 3 2 2 2 3 4 3 3 3 5 6 6 7 9 8 7 8 9 7 7 9 7 4 3 6 4 3 5 5 4 4 4 4 4 6 6 6 8 9 13 14 10 10 9 8 9 10 6 2 3 6 8 10 11 12 14 16 18 20 21 23 29 30
1 3 4 4 3 2 2 2 2 1 1 1 1 1 1 0 1 1 0 1 1 1 1 1 1 2 2 2 2 2 2 4 4 4 5 6 5 5 7 6 6 6 7 7 5 5 4 5 5 4 5 6 5 5 5 6 8 10 7 9 10 12 9 8 8 8 7 8 8 5 3 4 6 7 7 8 9 11 13 15 17 19 20 24 29
3 4 4 4 4 3 3 2 2 1 1 2 2 3 3 1 1 2 1 2 1 0 1 1 1 2 2 2 2 2 2 3 2 1 4 4 3 1 2 4 4 5 6 5 4 4 3 4 5 6 5 3 4 5 5 7 8 9 9 8 8 7 8 7 5 5 5 7 8 7 6 5 4 4 4 6 8 10 11 13 15 18 19 19 25
5 5 5 5 5 4 4 4 3 3 3 3 4 5 4 3 3 3 2 3 2 1 3 2 2 3 2 2 2 2 1 1 1 1 0 2 1 2 2 1 1 1 3 3 4 3 4 2 3 4 5 5 5 6 6 8 9 8 9 8 7 5 6 4 2 4 2 5 7 7 6 5 4 3 3 5 7 9 10 12 14 16 17 18 19
7 6 6 6 6 5 5 5 5 5 4 3 5 6 5 5 5 4 3 4 5 4 5 4 4 5 4 4 2 2 3 2 2 1 1 1 3 2 1 1 1 1 1 3 3 2 3 4 4 3 4 4 6 7 7 7 8 7 6 6 4 4 2 2 3 5 3 4 5 6 6 4 4 4 4 5 7 7 8 10 12 14 15 17 17
7 7 7 7 8 7 6 6 6 5 5 4 5 5 6 6 5 5 3 4 5 5 5 5 5 5 4 4 3 3 4 4 3 2 3 4 4 5 3 2 3 1 1 4 4 4 3 2 2 3 4 3 5 6 6 5 4 3 4 4 2 2 2 3 5 6 6 5 5 5 5 5 5 4 4 4 5 5 7 8 10 12 13 14 15
9 9 9 10 10 9 7 7 7 6 5 5 5 5 5 6 6 5 5 5 6 5 5 5 5 5 5 5 3 4 4 5 4 6 5 5 5 6 5 5 4 4 4 4 4 5 5 3 2 3 4 4 6 4 4 3 1 2 4 4 5 5 4 5 6 8 8 6 6 4 4 5 2 2 2 3 3 4 5 6 7 8 9 10 11
11 11 11 11 11 10 9 9 9 7 6 7 7 7 6 6 6 6 6 6 6 6 6 6 6 6 6 5 5 5 6 6 5 7 8 7 8 7 6 5 6 6 4 5 7 8 7 6 6 3 4 3 4 3 4 7 4 5 5 6 8 10 9 8 9 11 12 12 10 7 6 4 2 4 2 1 2 3 3 3 4 3 2 3 6
11 12 12 12 12 11 10 11 11 10 10 9 9 8 8 7 7 7 7 6 7 8 8 7 6 7 6 5 4 5 6 5 5 6 7 8 8 8 7 7 9 10 9 8 10 10 10 8 7 7 5 5 8 5 5 8 9 11 11 9 9 13 14 13 11 12 14 12 11 7 4 4 4 3 3 3 2 1 2 4 5 4 3 2 1
11 12 12 12 13 13 12 12 11 11 11 11 11 10 10 9 9 9 9 8 10 10 8 7 7 7 6 6 4 5 6 6 7 6 9 7 8 7 7 10 12 13 11 12 12 12 11 11 10 8 9 9 8 10 10 12 13 12 15 16 13 11 12 15 14 10 11 12 10 7 6 5 3 2 2 1 2 3 2 5 4 2 2 2 2
13 13 13 14 15 13 13 13 13 12 12 11 12 12 12 11 12 12 11 12 13 11 9 8 8 7 8 7 6 5 6 6 6 7 9 9 8 7 8 12 12 12 12 13 13 12 12 12 9 10 11 10 9 11 11 12 12 11 12 16 15 13 12 11 12 13 14 13 12 10 8 9 9 8 8 8 7 5 6 5 5 2 1 2 2
15 15 16 17 17 16 16 14 13 13 14 15 16 13 13 14 14 13 14 14 13 12 11 10 9 9 8 9 9 4 6 11 17 14 9 6 8 10 11 12 11 11 12 12 11 12 12 10 9 9 9 9 9 11 11 11 10 12 12 12 11 11 12 12 15 15 11 13 12 10 8 10 11 10 9 9 10 8 10 9 7 6 4 1 1
16 16 18 18 18 18 18 16 14 18 20 22 23 20 18 17 17 17 16 16 16 16 15 13 12 13 12 13 13 17 20 19 17 19 18 20 19 15 13 13 13 13 13 12 11 13 13 12 11 10 9 8 8 10 10 9 11 12 11 11 10 11 12 12 10 13 14 12 13 13 9 9 12 10 9 10 9 7 7 7 3 3 3 3 2
20 20 19 18 19 20 21 22 22 23 23 23 23 24 24 22 21 21 20 19 18 18 17 18 17 17 18 19 19 20 21 21 20 19 19 19 19 18 15 12 12 11 13 15 15 15 15 14 12 10 10 9 9 10 9 12 11 11 12 12 12 13 12 12 13 13 12 13 13 14 11 11 13 11 9 8 8 7 5 3 1 3 4 4 4
23 23 22 22 22 23 24 24 24 24 25 25 24 25 25 25 24 22 21 21 21 20 22 22 22 23 24 24 24 23 22 26 24 22 22 20 20 22 22 19 15 14 14 14 16 17 18 17 16 13 13 12 13 13 13 13 15 15 15 13 13 13 13 12 12 13 10 13 13 16 13 11 14 12 11 10 9 8 7 5 2 4 5 6 6
27 26 25 24 24 24 24 26 26 27 27 27 26 25 25 25 25 25 23 24 26 27 25 25 26 26 26 27 28 27 24 25 25 26 25 24 24 24 23 22 20 19 19 19 19 20 20 19 19 18 16 17 14 15 14 18 18 16 15 14 15 14 15 14 13 12 11 13 15 16 15 12 14 14 13 12 12 11 11 7 4 6 7 8 9
28 27 27 27 27 27 28 29 29 29 29 29 28 28 27 26 25 25 26 27 28 28 28 28 29 29 29 30 30 30 28 27 28 28 28 26 27 27 26 25 24 23 24 24 26 26 25 23 22 20 18 18 17 16 16 18 19 18 17 16 17 17 15 15 16 16 14 17 19 19 17 13 15 15 14 14 13 13 14 12 8 7 9 11 12
28 29 28 27 27 28 28 29 31 31 29 30 29 29 29 27 27 28 29 29 29 29 29 30 31 32 32 32 32 32 30 30 30 29 28 27 28 29 28 26 25 25 25 27 26 26 26 24 23 21 20 19 18 17 17 18 19 20 18 18 19 20 18 18 19 18 17 16 19 21 18 15 16 16 15 15 15 15 15 16 13 10 11 12 13
27 27 27 27 27 28 28 28 31 31 30 30 31 31 31 29 28 29 29 30 31 31 30 31 33 34 34 33 32 32 32 32 32 31 30 29 30 29 28 27 25 24 26 26 27 27 25 23 21 21 19 18 18 17 19 20 23 23 22 22 21 21 21 19 19 20 18 16 18 21 20 16 16 17 16 17 17 17 18 18 16 13 nan nan 13
29 30 30 31 31 29 29 30 30 32 32 31 32 34 33 32 30 30 30 32 32 32 33 32 34 35 35 39 36 35 35 34 34 33 34 32 31 30 29 28 26 26 27 27 27 27 26 25 25 25 23 23 24 26 29 28 26 26 25 25 22 23 21 21 19 21 20 17 18 21 20 18 15 18 19 19 19 20 20 20 18 nan nan 13 nan
32 32 33 35 35 34 33 33 35 35 34 34 35 36 36 34 32 32 34 34 36 35 36 36 37 38 38 39 40 37 35 35 37 38 38 36 33 31 29 29 30 31 30 28 28 29 30 30 31 30 30 30 32 33 33 33 33 30 27 26 25 25 23 22 21 21 22 24 21 22 nan nan nan 17 21 18 22 21 22 21 nan nan nan nan nan
Wind_Direction
117 117 119 119 123 123 123 124 122 116 120 116 111 107 107 105 106 109 112 112 103 98 95 96 97 100 84 75 68 78 86 95 98 101 106 109 106 98 78 78 77 79 82 85 83 80 81 80 79 75 71 68 66 66 62 61 59 56 53 50 48 44 40 38 36 34 33 33 33 33 32 31 31 32 35 37 41 45 47 44 40 44 48 40 36
113 117 118 120 124 122 123 120 115 117 123 117 114 116 113 111 107 110 113 113 108 97 92 92 99 102 106 80 72 73 85 94 100 103 114 116 113 110 83 80 76 79 80 82 82 80 79 79 77 72 68 66 64 59 60 59 56 55 52 47 44 42 38 34 31 30 29 29 28 29 30 30 30 31 33 36 40 46 46 42 39 41 38 34 27
113 115 118 123 123 121 123 125 123 120 122 116 118 117 114 111 108 106 103 101 103 106 103 106 110 113 101 92 88 93 95 102 106 116 122 119 117 112 103 79 78 78 79 79 79 79 79 79 75 70 66 63 59 57 55 55 54 53 50 45 43 39 34 30 29 29 29 28 27 26 27 29 30 29 30 32 35 44 43 33 25 24 19 11 5
115 117 121 122 125 128 128 125 117 118 117 117 118 117 112 111 114 114 116 115 114 113 100 82 101 98 97 89 107 99 95 100 105 118 130 130 117 111 106 101 82 79 80 77 76 75 77 77 75 71 66 60 56 52 51 51 52 51 49 45 41 36 32 29 23 25 26 25 22 20 22 25 24 24 26 28 31 35 25 12 7 3 5 6 6
116 120 121 119 124 124 125 122 117 118 120 115 116 116 116 116 118 120 112 102 96 94 106 106 91 92 90 92 95 101 105 107 112 124 128 130 122 116 110 105 108 89 79 77 73 71 73 73 72 68 62 56 52 49 46 47 46 45 45 42 38 32 29 27 20 20 19 14 15 17 17 18 20 20 23 26 24 12 12 6 358 0 5 9 8
114 115 112 113 114 117 116 116 115 114 115 113 115 123 127 127 119 125 130 136 134 126 118 99 92 91 92 98 102 96 108 108 110 114 129 125 117 114 110 108 103 100 95 76 68 67 67 68 68 65 58 50 45 43 42 41 41 40 37 35 30 26 25 22 20 16 14 12 13 13 14 16 18 20 23 19 8 12 9 1 0 3 7 9 8
110 107 106 106 106 107 110 108 111 111 112 119 126 123 120 120 119 135 126 121 120 116 109 103 113 78 91 95 96 108 107 95 100 113 113 119 114 105 104 104 100 92 82 79 72 63 61 63 65 61 53 45 39 37 36 36 33 32 30 27 22 19 17 17 16 15 12 11 11 11 12 15 15 17 18 14 13 9 7 3 2 6 10 10 8
106 107 104 104 104 105 106 109 107 114 125 124 122 119 113 113 111 128 135 121 123 116 111 134 136 104 105 137 121 113 88 92 93 96 101 113 106 101 95 90 88 82 69 61 63 63 58 55 55 54 48 40 33 32 34 33 30 25 22 20 17 15 14 14 15 14 11 11 11 10 12 13 13 16 18 19 11 10 10 9 9 12 13 9 6
104 104 102 101 101 103 106 104 110 121 121 119 120 119 119 119 121 124 131 118 115 109 116 138 127 117 119 150 143 115 67 71 82 94 106 96 92 97 96 80 69 63 61 53 51 52 52 46 41 41 39 33 28 26 27 29 25 20 16 16 16 15 14 14 14 12 11 11 10 11 13 14 15 18 21 17 15 14 16 15 14 15 14 9 5
102 101 101 103 104 104 105 110 120 116 121 126 120 122 129 123 129 123 132 124 122 125 122 126 129 119 129 142 135 124 85 80 75 94 88 79 79 81 78 71 53 46 43 40 38 40 39 41 38 32 34 33 26 23 21 19 19 17 15 16 16 15 15 14 11 11 11 12 13 14 15 15 16 20 21 18 18 18 19 18 16 15 14 10 6
101 104 104 102 101 102 107 113 118 121 122 125 125 128 123 124 133 120 116 118 104 102 104 117 120 123 120 122 127 117 105 116 121 65 74 70 64 59 64 68 50 40 36 33 30 28 29 28 22 14 18 30 26 21 14 15 15 15 16 16 16 17 17 13 10 11 12 15 17 17 16 16 17 22 23 20 18 19 20 18 16 15 14 9 9
102 102 107 106 102 103 104 111 113 115 113 114 119 122 122 131 130 124 122 110 89 86 94 102 119 118 126 117 112 114 108 119 130 90 70 69 63 58 52 53 46 40 29 26 20 20 19 19 15 12 8 17 23 19 17 14 14 14 15 19 19 19 18 15 13 13 14 19 21 21 19 17 20 24 24 20 18 19 21 19 16 15 14 10 10
106 106 110 102 99 99 103 115 113 115 116 109 106 110 113 115 116 112 114 123 113 113 121 133 130 136 142 125 117 116 121 128 114 97 73 56 56 52 51 44 46 39 34 22 16 14 13 15 13 9 8 10 14 17 15 14 15 15 18 22 24 22 20 18 17 17 20 23 26 24 21 20 22 25 24 21 19 19 20 19 17 15 13 12 11
108 110 106 93 90 99 101 95 110 117 116 120 120 121 123 124 123 123 113 112 106 106 115 117 133 119 114 112 124 120 111 108 94 87 77 69 48 41 39 36 39 40 37 27 21 13 12 11 14 13 9 7 8 6 8 9 13 21 23 26 27 26 23 22 22 24 26 29 28 25 22 22 25 27 24 22 21 19 20 19 19 17 14 14 14
105 104 98 89 80 81 80 80 95 113 126 135 136 127 122 119 122 122 121 109 100 101 104 101 123 140 136 141 125 122 116 122 106 94 82 66 56 49 42 38 45 43 37 34 31 20 13 4 9 13 10 6 7 7 7 8 12 21 26 28 30 33 31 27 27 29 30 32 30 27 25 24 26 27 25 23 21 21 21 20 20 19 16 16 16
95 95 96 88 78 73 79 79 91 111 116 122 132 129 122 120 124 121 108 119 124 114 102 92 100 184 141 133 121 112 113 105 98 93 81 71 53 54 48 47 46 52 33 39 37 29 21 359 2 6 6 2 5 6 8 12 20 25 27 28 34 39 39 34 32 33 35 35 33 30 29 28 27 26 26 23 24 23 23 23 22 21 18 17 18
89 90 94 89 88 86 83 85 97 108 115 118 121 117 113 111 115 118 115 108 131 125 116 127 122 111 105 137 121 107 90 85 91 87 95 88 80 67 58 68 66 60 44 48 49 46 21 358 4 357 2 2 4 6 10 15 17 15 18 28 36 39 38 36 35 37 40 40 37 36 34 32 29 28 25 24 24 26 27 27 25 23 19 18 19
90 91 89 84 78 75 73 81 96 106 113 118 121 122 118 117 116 113 121 117 116 133 132 127 128 126 128 116 75 97 97 99 93 84 99 80 90 72 72 67 51 64 64 48 45 40 19 5 353 357 2 5 8 5 9 13 12 12 14 23 35 40 42 41 38 39 42 41 42 43 41 37 33 30 26 24 25 27 30 30 28 26 22 20 20
95 89 82 73 69 68 70 78 90 102 119 122 125 122 120 117 121 122 122 119 120 136 133 122 132 141 149 142 120 100 84 114 108 95 111 110 126 114 114 116 58 28 58 67 70 26 10 351 351 12 10 6 5 5 5 11 14 15 20 29 38 41 44 43 42 42 42 43 47 48 47 42 38 33 29 25 24 28 32 32 30 29 26 20 21
96 84 73 69 67 71 80 88 95 105 119 119 117 121 121 121 124 126 128 131 129 132 122 126 140 121 134 136 135 133 132 124 88 97 97 114 124 121 104 128 163 66 59 61 12 350 353 356 358 16 15 12 8 360 5 11 15 19 22 36 44 48 48 48 48 46 44 43 50 51 50 47 43 36 29 26 27 29 31 32 32 30 27 24 21
87 68 70 65 64 68 84 96 105 105 117 117 120 122 128 129 130 134 140 132 133 123 122 129 137 129 130 132 134 146 135 143 141 137 118 120 114 113 123 134 141 122 147 150 271 320 350 358 360 359 5 14 5 -0 10 16 22 21 29 44 51 54 54 54 54 50 48 49 48 52 52 51 47 40 33 30 30 30 30 31 32 30 31 26 21
84 67 66 66 61 73 89 95 101 104 112 111 124 131 135 133 127 133 130 141 132 131 132 129 131 124 117 117 149 138 155 144 148 164 135 152 139 132 117 153 158 121 150 176 247 264 319 357 356 349 6 12 359 8 15 22 24 25 37 53 59 61 61 60 58 54 50 52 54 53 53 52 49 43 38 35 34 33 31 30 33 32 31 31 26
67 75 61 68 68 78 88 98 100 105 117 126 123 130 130 126 132 136 139 140 143 141 140 141 141 144 144 152 150 133 118 124 122 169 171 144 168 152 153 138 132 149 151 166 190 202 215 325 350 1 5 353 1 13 16 23 27 34 49 62 70 69 68 65 61 54 51 53 57 55 53 53 50 45 43 39 37 37 34 31 31 32 31 29 25
92 74 70 70 77 86 93 100 101 105 108 114 117 128 138 139 138 141 141 143 147 149 150 149 149 153 149 151 152 129 132 139 120 209 246 94 343 143 164 161 185 165 123 170 214 206 214 241 278 339 326 356 19 10 12 21 30 50 54 66 75 81 79 72 64 56 54 56 59 58 54 53 51 47 42 42 39 39 36 32 31 31 32 31 26
89 69 69 67 78 90 97 102 105 104 106 110 112 126 134 137 140 146 144 147 147 152 156 147 156 158 144 149 145 142 165 160 174 239 273 296 301 273 297 277 289 217 262 253 261 182 290 240 300 6 344 357 10 5 11 20 28 47 53 56 84 94 88 76 67 61 59 59 62 60 54 51 50 45 44 45 44 41 38 29 27 29 30 29 28
70 63 61 67 82 89 99 106 104 101 102 102 106 116 123 130 137 134 139 136 145 147 154 157 159 154 163 162 158 167 168 183 207 286 299 283 275 284 292 280 296 298 312 288 340 292 347 293 284 298 303 324 359 353 10 22 30 53 67 58 79 91 81 72 68 66 60 59 62 62 58 53 52 48 44 46 47 45 40 33 27 27 28 28 27
67 64 71 75 87 99 111 115 112 102 102 102 107 117 127 134 133 128 130 133 136 144 155 159 160 169 171 169 161 170 172 175 232 219 260 284 287 296 296 290 279 281 303 333 338 335 344 8 329 306 315 324 335 341 18 19 37 64 66 42 65 89 87 77 73 74 70 65 64 66 63 57 54 54 50 49 51 49 42 40 28 26 26 25 24
86 87 76 85 90 101 119 127 126 115 116 110 109 110 117 118 119 125 128 132 133 147 149 160 165 173 174 166 175 170 180 184 209 198 224 259 269 280 286 294 298 292 306 316 322 339 341 329 351 344 330 321 347 359 23 31 26 66 58 45 72 86 90 91 97 99 93 77 66 60 59 54 51 52 52 50 52 52 44 38 32 26 23 23 22
95 105 109 108 104 100 116 136 136 131 134 126 115 107 103 97 98 113 118 132 152 146 149 165 159 170 176 175 173 177 181 209 220 221 238 260 277 296 301 296 310 302 311 312 343 347 4 347 340 8 343 342 1 11 16 12 34 47 33 56 87 92 98 108 102 94 86 85 70 50 45 41 39 40 42 46 48 49 47 43 38 28 21 21 23
119 129 137 116 113 104 123 140 138 147 139 136 139 129 118 104 95 90 101 124 147 156 148 170 156 166 180 183 201 197 205 225 226 223 242 239 252 273 294 301 308 313 330 336 10 0 13 16 350 357 6 16 358 21 13 32 78 93 69 104 125 116 115 107 91 86 84 80 66 46 32 26 29 31 34 38 41 43 43 40 41 33 16 19 20
144 157 182 153 143 140 149 159 165 150 166 157 147 145 145 68 72 44 83 10 13 106 131 178 151 174 168 166 177 198 224 239 240 229 230 237 238 277 293 302 311 311 329 333 347 24 348 20 24 3 357 20 26 28 48 55 78 94 92 112 122 124 118 93 88 83 81 71 58 48 0 1 26 34 32 32 33 36 38 37 38 42 20 13 17
174 189 207 200 194 188 172 181 191 180 216 197 221 223 233 108 282 305 198 298 324 52 133 162 175 176 162 160 156 161 188 226 221 226 244 249 262 305 299 295 312 319 316 330 360 58 23 14 45 60 44 23 50 44 58 65 78 99 89 105 112 120 105 79 69 81 73 62 58 55 31 25 26 29 29 30 32 34 33 35 38 38 40 15 14
225 217 212 222 225 226 227 211 232 253 281 289 292 288 294 303 271 283 265 282 293 117 291 155 190 199 179 171 159 163 203 215 219 234 253 265 249 236 261 296 308 311 315 328 11 76 91 24 32 36 48 19 48 28 68 75 83 91 102 93 101 108 100 77 50 64 58 42 38 30 22 27 35 41 22 17 28 32 29 31 34 37 39 36 17
229 225 223 223 230 243 240 240 245 271 287 301 308 303 309 309 298 294 300 289 292 278 274 267 221 224 245 246 216 191 218 311 273 200 261 247 244 168 177 233 161 336 326 327 18 27 63 84 66 53 53 15 37 49 54 75 83 90 106 111 114 111 98 82 54 11 44 38 29 18 10 18 26 25 10 13 24 29 27 26 32 33 35 38 32
224 231 234 239 244 247 244 248 255 262 279 294 294 299 304 305 308 304 304 302 300 287 277 270 258 249 240 258 261 254 254 267 289 314 290 339 300 289 225 243 212 130 326 337 324 38 69 66 24 32 27 26 26 52 65 52 55 57 79 101 114 108 83 16 334 320 2 32 19 6 -0 353 349 351 357 9 21 25 23 25 26 28 29 34 36
236 230 239 247 251 254 255 254 261 263 276 286 291 296 305 303 299 301 294 282 282 282 280 276 271 267 273 261 255 257 259 260 264 271 288 295 292 288 275 254 278 246 297 303 338 353 353 353 28 3 16 22 34 35 37 44 44 74 33 52 16 332 311 293 304 327 344 15 3 356 343 328 335 356 6 16 16 19 23 22 23 25 29 31 29
243 243 238 241 249 255 258 260 258 262 275 287 292 295 293 291 294 292 287 284 283 282 280 279 278 276 272 278 284 283 285 295 274 276 271 253 253 260 257 262 275 271 270 291 295 306 313 346 344 340 338 345 360 20 348 316 0 337 334 314 314 318 307 315 320 327 338 341 337 339 333 322 358 28 29 15 14 26 24 22 20 26 32 31 23
246 249 251 245 248 250 253 258 260 266 274 282 292 294 296 293 293 287 281 280 283 283 278 281 281 280 276 278 285 289 289 296 293 276 268 262 256 257 258 256 264 267 280 276 286 300 302 303 304 286 281 307 286 311 312 288 289 312 308 312 307 309 311 314 322 325 322 323 326 331 328 326 48 110 100 99 64 35 23 1 341 327 345 24 21
252 250 251 250 247 254 256 259 261 266 274 278 282 285 286 286 290 289 287 281 272 258 260 272 277 274 277 277 284 294 293 299 299 296 287 273 266 263 267 266 270 277 280 278 272 272 271 268 271 299 293 283 292 283 270 275 297 311 309 294 298 312 314 317 320 323 324 326 336 358 357 5 54 40 84 98 99 68 311 306 270 230 204 173 95
263 257 256 256 254 256 262 269 271 271 275 277 277 280 281 283 285 290 294 291 277 269 257 259 269 274 278 276 276 281 294 298 303 300 293 291 280 278 279 277 279 282 284 275 271 273 274 275 282 272 276 276 256 283 283 274 277 285 296 300 299 293 300 314 324 326 326 324 327 336 337 335 348 51 90 91 108 138 289 300 273 240 185 143 144
276 272 269 267 263 264 265 269 270 270 274 275 271 272 276 278 282 286 287 285 283 283 276 269 270 272 271 277 278 280 295 330 347 328 312 310 299 300 287 287 291 292 289 281 276 271 271 273 265 277 274 266 275 272 265 276 274 285 291 289 299 304 310 312 326 338 335 322 323 332 343 337 341 351 355 1 11 26 5 351 344 307 49 95 150
284 284 282 279 276 274 274 272 267 264 262 261 258 273 273 273 276 274 274 275 274 273 275 276 269 274 280 275 270 272 252 251 262 267 285 316 330 308 291 292 294 295 295 290 283 281 277 273 278 276 266 269 273 276 282 287 286 287 280 283 285 299 303 313 324 324 329 312 311 320 341 339 331 345 345 350 360 358 6 358 356 351 350 338 179
273 276 283 283 279 275 275 274 269 255 246 244 238 242 250 253 261 268 272 272 272 273 273 272 273 262 257 257 259 263 259 252 255 247 252 257 261 274 283 295 300 295 294 293 290 290 288 289 287 280 284 282 277 280 283 281 284 284 287 285 290 289 290 289 292 313 324 304 307 315 332 332 322 328 337 340 344 350 357 351 355 295 293 291 254
262 264 266 270 272 273 266 259 257 255 254 247 244 247 250 256 262 267 270 272 274 274 269 269 269 269 264 261 261 263 261 261 263 260 257 254 254 256 261 273 289 297 293 294 293 290 292 293 287 291 291 294 288 279 280 280 275 275 278 280 289 290 290 294 304 306 316 302 302 305 320 323 312 313 318 323 326 338 343 6 270 269 278 266 253
252 257 262 264 267 268 270 269 264 259 258 252 253 255 258 262 264 269 273 272 273 273 273 273 270 266 264 264 262 258 259 254 261 264 266 265 260 257 262 270 280 292 296 293 289 288 286 289 292 287 290 287 283 285 286 280 279 278 278 277 285 290 292 294 297 298 301 296 295 301 305 312 303 299 305 310 314 322 326 315 259 270 268 261 255
248 250 251 253 256 262 268 270 264 257 255 248 246 251 256 259 263 267 271 272 271 272 274 273 270 269 269 270 268 263 261 262 263 264 265 265 265 265 265 265 266 263 265 275 287 285 284 287 289 292 288 288 288 288 283 283 278 279 281 285 288 287 289 295 295 298 303 293 299 298 304 306 297 297 304 311 312 318 319 314 287 276 268 264 266
255 254 253 251 248 250 253 257 260 257 253 246 247 248 249 252 257 266 268 269 269 271 272 273 273 272 270 269 269 270 267 264 263 261 265 264 265 266 266 265 264 268 269 270 270 272 275 282 287 293 293 291 292 289 289 289 289 291 291 293 288 289 293 294 294 300 299 298 295 291 299 299 297 295 304 308 309 314 316 313 295 270 265 266 270
247 249 248 250 253 253 253 257 260 260 255 250 250 249 248 249 257 264 266 268 268 269 269 268 268 267 267 269 270 270 270 268 261 254 258 264 267 267 267 266 267 269 271 272 269 267 272 277 280 281 284 284 285 286 284 285 288 289 284 283 284 286 284 282 279 279 283 284 288 289 293 295 296 295 302 303 305 309 309 308 298 270 260 264 270
254 253 255 254 256 258 256 255 259 258 256 253 252 252 251 248 256 260 264 268 271 272 271 269 269 268 267 268 270 272 271 269 263 258 254 255 267 268 268 269 269 270 271 269 264 262 260 263 268 275 279 280 277 275 278 291 290 281 280 275 274 275 274 271 273 273 271 271 286 287 289 293 291 294 299 299 299 308 307 303 296 279 nan nan 268
253 251 253 254 256 258 258 257 257 258 256 253 251 252 254 254 260 264 265 270 272 273 271 268 266 265 269 273 271 270 271 270 263 260 255 259 263 263 266 266 269 271 269 264 267 266 263 264 269 271 274 274 272 268 271 275 279 281 279 271 275 275 274 274 272 275 276 280 287 281 279 291 291 296 299 301 300 307 304 298 290 nan nan 275 nan
256 255 257 259 261 261 262 263 264 261 259 256 255 255 255 257 263 267 268 270 272 273 274 270 266 263 260 262 266 268 270 269 264 261 257 259 263 263 264 267 270 273 273 272 270 266 263 263 265 265 266 265 270 271 268 261 267 274 276 273 270 269 268 269 270 274 279 285 280 273 nan nan nan 292 290 290 299 302 298 287 nan nan nan nan nan